Location: La Sioule Rivi�re
(46.3664°N, 3.3197°E)
Time: 12:58:49
(UTC+00:00)

Atlas Centaur 2 - Pass Details

Date: 29 October 2020
Orbit: 459 x 1309 km, 30.4° (Epoch: 23 November)

Event Time Altitude Azimuth Distance (km) Brightness Sun altitude
Rises 19:00:23 0° 247° (WSW) 4,187 6.7 -25.4°
Reaches altitude 10° 19:03:49 10° 236° (SW) 3,281 5.8 -26.0°
Maximum altitude 19:10:20 25° 185° (S) 2,355 4.4 -27.1°
Enters shadow 19:12:32 23° 163° (SSE) 2,472 4.3 -27.5°
